Главная страница
METAR-TAF:

METAR-TAF

Аэропорты :

Belmar / Farmingdale, Нью-Джерси, США

широта: 40-11N, долгота: 074-08W, высота над уровнем моря: 48 м

Текущие метеонаблюдения

Эта сводка был подготовлена 29 минут назад, в 15:56 UTC
Ветер 6 Узел от западный-юго-западный
Температура 0°C
Влажность 74%
Давление 1020 hPa
Видимость: 16.1 км
Сплошная облачность на высоте 2800 фута

METAR: KBLM 161556Z AUTO 25006KT 10SM OVC028 00/M04 A3012 RMK AO2 SLP205 T00001039 FZRANO

Время: 11:25 (16:25 UTC)


TAF: отсутствует

Метеонаблюдения и прогнозы для более 4000 аэропортов (сводки METAR и TAF).

Имеющиеся станции представлены на карте желтыми и красными точками.

Чтобы увидеть название станции, наведите на нее мышь.

Затем щелкните, чтобы увидеть метеонаблюдения и метеопрогнозы.

Управление картой: чтобы увеличить масштаб, щелкните зеленые кнопки с черным крестиком; чтобы уменьшить масштаб, щелкните зеленую кнопку с тире; для просмотра соседних карт щелкайте зеленые стрелки.


METAR-TAF: